This is the latest recevied weather packets stored in our database for station/object KE8RXN. If no packets are shown the sender has not sent any weather packets the latest 10 day(s).
| Time | Temp. | Humidity | Pressure | Rain* | Wind** | Luminosity | Snow |
|---|---|---|---|---|---|---|---|
| 1777423865 | 11.67° C | 76% | 1016.3 hPa | 0 mm | - | 0 W/m² | - |
| 1777423560 | 11.67° C | 76% | 1016.2 hPa | 0 mm | - | 0 W/m² | - |
| 1777423256 | 11.67° C | 74% | 1016.2 hPa | 0 mm | - | 0 W/m² | - |
| 1777422950 | 12.22° C | 73% | 1016.2 hPa | 0 mm | - | 2 W/m² | - |
| 1777422646 | 12.22° C | 73% | 1016.6 hPa | 0 mm | - | 3 W/m² | - |
| 1777422342 | 12.22° C | 73% | 1016.6 hPa | 0 mm | - | 6 W/m² | - |
| 1777422036 | 12.22° C | 72% | 1016.6 hPa | 0 mm | - | 8 W/m² | - |
| 1777421731 | 12.78° C | 72% | 1016.6 hPa | 0 mm | - | 11 W/m² | - |
| 1777421427 | 12.78° C | 72% | 1016.6 hPa | 0 mm | - | 12 W/m² | - |
| 1777421117 | 12.78° C | 71% | 1016.7 hPa | 0 mm | - | 14 W/m² | - |
| 1777420814 | 12.78° C | 71% | 1016.4 hPa | 0 mm | - | 18 W/m² | - |
| 1777420510 | 12.78° C | 71% | 1016.2 hPa | 0 mm | - | 23 W/m² | - |
| 1777420207 | 12.78° C | 71% | 1016.1 hPa | 0 mm | - | 19 W/m² | - |
| 1777419901 | 13.33° C | 70% | 1016 hPa | 0 mm | - | 19 W/m² | - |
| 1777419599 | 13.33° C | 69% | 1015.8 hPa | 0 mm | - | 23 W/m² | - |
| 1777419298 | 13.33° C | 69% | 1015.8 hPa | 0 mm | - | 28 W/m² | - |
| 1777418996 | 13.33° C | 69% | 1016 hPa | 0 mm | - | 30 W/m² | - |
| 1777418690 | 13.33° C | 68% | 1016.1 hPa | 0 mm | - | 35 W/m² | - |
| 1777418388 | 13.89° C | 67% | 1016.2 hPa | 0 mm | - | 31 W/m² | - |
| 1777418083 | 13.89° C | 67% | 1016.1 hPa | 0 mm | - | 48 W/m² | - |
| 1777417780 | 13.89° C | 67% | 1016.3 hPa | 0 mm | - | 75 W/m² | - |
| 1777417475 | 13.89° C | 67% | 1016.4 hPa | 0 mm | - | 55 W/m² | - |
| 1777417171 | 13.89° C | 67% | 1016.4 hPa | 0 mm | - | 43 W/m² | - |
| 1777416862 | 13.89° C | 66% | 1016.8 hPa | 0 mm | - | 65 W/m² | - |
| 1777416557 | 14.44° C | 66% | 1016.7 hPa | 0 mm | - | 78 W/m² | - |
* Rain latest hour (hover to see other rain measurements)
** Current wind speed in m/s (hover to see current wind gust speed)